Time,TemperatureF,DewpointF,PressureIn,WindDirection,WindDirectionDegrees,WindSpeedMPH,WindSpeedGustMPH,Humidity,HourlyPrecipIn,Conditions,Clouds,dailyrainin,SolarRadiationWatts/m^2,SoftwareType,DateUTC
2013-06-01 00:00:00,78.0,74.5,29.69,SE,142,6.0,6.0,89,0.00,,,0.00,0,Wunderground v.1.15,2013-06-01 05:00:00,
2013-06-01 00:10:00,77.8,74.6,29.69,SSE,163,5.0,5.0,90,0.00,,,0.00,0,Wunderground v.1.15,2013-06-01 05:10:00,
2013-06-01 00:15:00,77.7,74.5,29.70,SSE,148,4.0,11.0,90,0.00,,,0.00,0,Wunderground v.1.15,2013-06-01 05:15:00,
2013-06-01 00:20:00,77.6,74.4,29.70,SSE,149,6.0,11.0,90,0.00,,,0.00,0,Wunderground v.1.15,2013-06-01 05:20:00,
2013-06-01 00:25:00,77.6,74.4,29.70,SSE,153,7.0,11.0,90,0.00,,,0.00,0,Wunderground v.1.15,2013-06-01 05:25:00,
2013-06-01 00:30:00,77.5,74.3,29.70,SE,145,6.0,6.0,90,0.00,,,0.00,0,Wunderground v.1.15,2013-06-01 05:30:00,
2013-06-01 00:35:00,77.5,74.3,29.70,SE,146,5.0,6.0,90,0.00,,,0.00,0,Wunderground v.1.15,2013-06-01 05:35:00,
2013-06-01 00:45:00,77.3,74.1,29.70,SSE,153,4.0,5.0,90,0.00,,,0.00,0,Wunderground v.1.15,2013-06-01 05:45:00,
2013-06-01 00:50:00,77.3,74.1,29.70,SE,140,5.0,7.0,90,0.00,,,0.00,0,Wunderground v.1.15,2013-06-01 05:50:00,
2013-06-01 00:55:00,77.2,74.0,29.70,SSE,166,6.0,9.0,90,0.00,,,0.00,0,Wunderground v.1.15,2013-06-01 05:55:00,
2013-06-01 01:00:00,77.1,73.9,29.70,SE,137,6.0,6.0,90,0.00,,,0.00,0,Wunderground v.1.15,2013-06-01 06:00:00,
2013-06-01 01:05:00,77.1,73.9,29.70,SSE,149,5.0,6.0,90,0.00,,,0.00,0,Wunderground v.1.15,2013-06-01 06:05:00,
2013-06-01 01:10:00,77.1,74.3,29.70,SSE,167,5.0,6.0,91,0.00,,,0.00,0,Wunderground v.1.15,2013-06-01 06:10:00,
2013-06-01 01:15:00,77.1,74.3,29.70,SSE,167,6.0,6.0,91,0.00,,,0.00,0,Wunderground v.1.15,2013-06-01 06:15:00,
2013-06-01 01:20:00,77.2,74.4,29.70,SSE,155,5.0,5.0,91,0.00,,,0.00,0,Wunderground v.1.15,2013-06-01 06:20:00,
2013-06-01 01:25:00,77.2,74.4,29.70,South,176,5.0,5.0,91,0.00,,,0.00,0,Wunderground v.1.15,2013-06-01 06:25:00,
2013-06-01 01:30:00,77.2,74.4,29.70,SSE,157,5.0,5.0,91,0.00,,,0.00,0,Wunderground v.1.15,2013-06-01 06:30:00,
2013-06-01 01:35:00,77.2,74.4,29.70,SSE,165,4.0,5.0,91,0.00,,,0.00,0,Wunderground v.1.15,2013-06-01 06:35:00,
2013-06-01 01:45:00,77.2,74.4,29.70,SSE,157,2.0,4.0,91,0.00,,,0.00,0,Wunderground v.1.15,2013-06-01 06:45:00,
2013-06-01 01:50:00,77.1,73.9,29.70,SSE,151,3.0,3.0,90,0.00,,,0.00,0,Wunderground v.1.15,2013-06-01 06:50:00,
2013-06-01 01:55:00,77.1,74.3,29.70,SSE,167,3.0,3.0,91,0.00,,,0.00,0,Wunderground v.1.15,2013-06-01 06:55:00,
2013-06-01 02:05:00,77.0,74.2,29.70,SSE,165,4.0,5.0,91,0.00,,,0.00,0,Wunderground v.1.15,2013-06-01 07:05:00,
2013-06-01 02:10:00,76.9,74.1,29.70,South,169,5.0,10.0,91,0.00,,,0.00,0,Wunderground v.1.15,2013-06-01 07:10:00,
2013-06-01 02:20:00,76.9,74.1,29.70,SSE,152,5.0,5.0,91,0.00,,,0.00,0,Wunderground v.1.15,2013-06-01 07:20:00,
2013-06-01 02:25:00,76.8,74.0,29.70,SSE,156,3.0,5.0,91,0.00,,,0.00,0,Wunderground v.1.15,2013-06-01 07:25:00,
2013-06-01 02:35:00,76.7,73.9,29.69,SSE,156,4.0,4.0,91,0.00,,,0.00,0,Wunderground v.1.15,2013-06-01 07:35:00,
2013-06-01 02:40:00,76.7,73.9,29.69,South,170,5.0,8.0,91,0.00,,,0.00,0,Wunderground v.1.15,2013-06-01 07:40:00,
2013-06-01 02:45:00,76.7,73.9,29.69,SSE,163,6.0,10.0,91,0.00,,,0.00,0,Wunderground v.1.15,2013-06-01 07:45:00,
2013-06-01 02:50:00,76.7,73.9,29.69,SSE,155,7.0,7.0,91,0.00,,,0.00,0,Wunderground v.1.15,2013-06-01 07:50:00,
2013-06-01 02:55:00,76.7,73.9,29.69,SE,134,4.0,7.0,91,0.00,,,0.00,0,Wunderground v.1.15,2013-06-01 07:55:00,
2013-06-01 03:05:00,76.7,73.9,29.69,South,180,5.0,9.0,91,0.00,,,0.00,0,Wunderground v.1.15,2013-06-01 08:05:00,
2013-06-01 03:15:00,76.7,73.9,29.69,South,175,3.0,5.0,91,0.00,,,0.00,0,Wunderground v.1.15,2013-06-01 08:15:00,
2013-06-01 03:20:00,76.7,73.9,29.69,SSE,147,3.0,12.0,91,0.00,,,0.00,0,Wunderground v.1.15,2013-06-01 08:20:00,
2013-06-01 03:25:00,76.7,73.9,29.69,South,178,5.0,12.0,91,0.00,,,0.00,0,Wunderground v.1.15,2013-06-01 08:25:00,
2013-06-01 03:30:00,76.7,73.5,29.69,SE,146,4.0,4.0,90,0.00,,,0.00,0,Wunderground v.1.15,2013-06-01 08:30:00,
2013-06-01 03:35:00,76.7,73.5,29.69,South,171,3.0,9.0,90,0.00,,,0.00,0,Wunderground v.1.15,2013-06-01 08:35:00,
2013-06-01 03:45:00,76.6,73.8,29.69,South,178,5.0,11.0,91,0.00,,,0.00,0,Wunderground v.1.15,2013-06-01 08:45:00,
2013-06-01 03:50:00,76.6,73.8,29.69,SSE,164,4.0,4.0,91,0.00,,,0.00,0,Wunderground v.1.15,2013-06-01 08:50:00,
2013-06-01 03:55:00,76.6,73.8,29.69,SSE,148,4.0,4.0,91,0.00,,,0.00,0,Wunderground v.1.15,2013-06-01 08:55:00,
2013-06-01 04:05:00,76.6,73.8,29.69,SSE,163,3.0,6.0,91,0.00,,,0.00,0,Wunderground v.1.15,2013-06-01 09:05:00,
2013-06-01 04:15:00,76.6,73.8,29.69,SSE,155,3.0,4.0,91,0.00,,,0.00,0,Wunderground v.1.15,2013-06-01 09:15:00,
2013-06-01 04:25:00,76.6,73.8,29.69,SSE,166,5.0,6.0,91,0.00,,,0.00,0,Wunderground v.1.15,2013-06-01 09:25:00,
2013-06-01 04:30:00,76.6,73.4,29.69,South,170,5.0,7.0,90,0.00,,,0.00,0,Wunderground v.1.15,2013-06-01 09:30:00,
2013-06-01 04:35:00,76.7,73.5,29.69,SSE,156,6.0,9.0,90,0.00,,,0.00,0,Wunderground v.1.15,2013-06-01 09:35:00,
2013-06-01 04:40:00,76.7,73.5,29.69,South,180,5.0,7.0,90,0.00,,,0.00,0,Wunderground v.1.15,2013-06-01 09:40:00,
2013-06-01 04:45:00,76.7,73.5,29.69,South,184,5.0,9.0,90,0.00,,,0.00,0,Wunderground v.1.15,2013-06-01 09:45:00,
2013-06-01 04:50:00,76.6,73.4,29.69,South,173,6.0,11.0,90,0.00,,,0.00,0,Wunderground v.1.15,2013-06-01 09:50:00,
2013-06-01 04:55:00,76.6,73.4,29.69,South,175,6.0,11.0,90,0.00,,,0.00,0,Wunderground v.1.15,2013-06-01 09:55:00,
2013-06-01 05:00:00,76.7,73.5,29.69,SSE,153,4.0,4.0,90,0.00,,,0.00,0,Wunderground v.1.15,2013-06-01 10:00:00,
2013-06-01 05:05:00,76.7,73.5,29.69,SSE,159,2.0,5.0,90,0.00,,,0.00,0,Wunderground v.1.15,2013-06-01 10:05:00,
2013-06-01 05:10:00,76.7,73.5,29.69,SSE,167,2.0,4.0,90,0.00,,,0.00,0,Wunderground v.1.15,2013-06-01 10:10:00,
2013-06-01 05:20:00,76.7,73.5,29.69,SSE,155,5.0,6.0,90,0.00,,,0.00,0,Wunderground v.1.15,2013-06-01 10:20:00,
2013-06-01 05:25:00,76.7,73.5,29.69,SE,126,6.0,6.0,90,0.00,,,0.00,0,Wunderground v.1.15,2013-06-01 10:25:00,
2013-06-01 05:30:00,76.7,73.5,29.69,SE,130,3.0,10.0,90,0.00,,,0.00,0,Wunderground v.1.15,2013-06-01 10:30:00,
2013-06-01 05:35:00,76.7,73.5,29.69,SSE,167,3.0,10.0,90,0.00,,,0.00,0,Wunderground v.1.15,2013-06-01 10:35:00,
2013-06-01 05:45:00,76.8,73.6,29.70,SSE,161,2.0,3.0,90,0.00,,,0.00,0,Wunderground v.1.15,2013-06-01 10:45:00,
2013-06-01 05:50:00,76.8,73.6,29.70,SE,144,3.0,5.0,90,0.00,,,0.00,0,Wunderground v.1.15,2013-06-01 10:50:00,
2013-06-01 05:55:00,76.8,73.6,29.70,SSE,165,3.0,5.0,90,0.00,,,0.00,0,Wunderground v.1.15,2013-06-01 10:55:00,
2013-06-01 06:00:00,76.8,73.6,29.70,SSE,168,3.0,3.0,90,0.00,,,0.00,0,Wunderground v.1.15,2013-06-01 11:00:00,
2013-06-01 06:05:00,76.8,73.6,29.70,SSE,168,5.0,6.0,90,0.00,,,0.00,0,Wunderground v.1.15,2013-06-01 11:05:00,
2013-06-01 06:15:00,76.8,73.6,29.70,South,173,4.0,4.0,90,0.00,,,0.00,0,Wunderground v.1.15,2013-06-01 11:15:00,
2013-06-01 06:20:00,76.8,73.6,29.70,SSE,163,4.0,4.0,90,0.00,,,0.00,0,Wunderground v.1.15,2013-06-01 11:20:00,
2013-06-01 06:25:00,76.8,73.6,29.70,SSE,163,4.0,4.0,90,0.00,,,0.00,0,Wunderground v.1.15,2013-06-01 11:25:00,
2013-06-01 06:30:00,76.8,73.6,29.71,South,169,5.0,8.0,90,0.00,,,0.00,0,Wunderground v.1.15,2013-06-01 11:30:00,
2013-06-01 06:35:00,76.8,73.6,29.71,SE,144,4.0,8.0,90,0.00,,,0.00,0,Wunderground v.1.15,2013-06-01 11:35:00,
2013-06-01 06:40:00,76.8,73.6,29.71,South,177,5.0,6.0,90,0.00,,,0.00,0,Wunderground v.1.15,2013-06-01 11:40:00,
2013-06-01 06:45:00,76.8,73.6,29.71,South,182,5.0,6.0,90,0.00,,,0.00,0,Wunderground v.1.15,2013-06-01 11:45:00,
2013-06-01 06:50:00,76.8,73.6,29.71,South,181,4.0,5.0,90,0.00,,,0.00,7,Wunderground v.1.15,2013-06-01 11:50:00,
2013-06-01 06:55:00,76.8,73.6,29.71,SSE,157,5.0,5.0,90,0.00,,,0.00,11,Wunderground v.1.15,2013-06-01 11:55:00,
2013-06-01 07:00:00,76.8,73.6,29.71,South,177,5.0,5.0,90,0.00,,,0.00,14,Wunderground v.1.15,2013-06-01 12:00:00,
2013-06-01 07:05:00,76.8,73.6,29.71,SSE,165,5.0,9.0,90,0.00,,,0.00,18,Wunderground v.1.15,2013-06-01 12:05:00,
2013-06-01 07:10:00,76.8,73.6,29.71,South,169,6.0,6.0,90,0.00,,,0.00,26,Wunderground v.1.15,2013-06-01 12:10:00,
2013-06-01 07:15:00,76.8,73.6,29.72,South,175,5.0,9.0,90,0.00,,,0.00,28,Wunderground v.1.15,2013-06-01 12:15:00,
2013-06-01 07:20:00,76.8,73.6,29.72,South,186,5.0,9.0,90,0.00,,,0.00,33,Wunderground v.1.15,2013-06-01 12:20:00,
2013-06-01 07:25:00,76.9,73.7,29.72,SSE,165,5.0,9.0,90,0.00,,,0.00,40,Wunderground v.1.15,2013-06-01 12:25:00,
2013-06-01 07:30:00,76.9,73.7,29.72,South,186,5.0,5.0,90,0.00,,,0.00,44,Wunderground v.1.15,2013-06-01 12:30:00,
2013-06-01 07:35:00,76.9,73.7,29.72,South,175,5.0,5.0,90,0.00,,,0.00,69,Wunderground v.1.15,2013-06-01 12:35:00,
2013-06-01 07:40:00,77.0,73.8,29.72,South,178,5.0,5.0,90,0.00,,,0.00,67,Wunderground v.1.15,2013-06-01 12:40:00,
2013-06-01 07:45:00,77.1,73.9,29.73,SSE,158,4.0,5.0,90,0.00,,,0.00,81,Wunderground v.1.15,2013-06-01 12:45:00,
2013-06-01 07:50:00,77.2,74.0,29.73,SSE,168,3.0,4.0,90,0.00,,,0.00,109,Wunderground v.1.15,2013-06-01 12:50:00,
2013-06-01 07:55:00,77.3,74.1,29.73,SSE,166,3.0,4.0,90,0.00,,,0.00,79,Wunderground v.1.15,2013-06-01 12:55:00,
2013-06-01 08:00:00,77.4,74.2,29.73,South,189,3.0,3.0,90,0.00,,,0.00,90,Wunderground v.1.15,2013-06-01 13:00:00,
2013-06-01 08:05:00,77.5,74.3,29.73,SSE,162,3.0,3.0,90,0.00,,,0.00,128,Wunderground v.1.15,2013-06-01 13:05:00,
2013-06-01 08:10:00,77.6,74.4,29.73,South,174,3.0,3.0,90,0.00,,,0.00,144,Wunderground v.1.15,2013-06-01 13:10:00,
2013-06-01 08:15:00,77.6,74.4,29.74,SSE,154,4.0,4.0,90,0.00,,,0.00,116,Wunderground v.1.15,2013-06-01 13:15:00,
2013-06-01 08:25:00,77.8,74.3,29.74,SSE,158,6.0,11.0,89,0.00,,,0.00,144,Wunderground v.1.15,2013-06-01 13:25:00,
2013-06-01 08:30:00,78.0,74.5,29.74,SSE,157,6.0,6.0,89,0.00,,,0.00,142,Wunderground v.1.15,2013-06-01 13:30:00,
2013-06-01 08:35:00,78.1,74.6,29.74,SSE,163,7.0,7.0,89,0.00,,,0.00,165,Wunderground v.1.15,2013-06-01 13:35:00,
2013-06-01 08:40:00,78.4,74.5,29.74,SSE,167,7.0,7.0,88,0.00,,,0.00,246,Wunderground v.1.15,2013-06-01 13:40:00,
2013-06-01 08:45:00,78.7,74.5,29.74,South,176,5.0,7.0,87,0.00,,,0.00,204,Wunderground v.1.15,2013-06-01 13:45:00,
2013-06-01 08:50:00,79.1,74.5,29.74,SSE,164,6.0,6.0,86,0.00,,,0.00,497,Wunderground v.1.15,2013-06-01 13:50:00,
2013-06-01 08:55:00,79.3,74.4,29.74,South,180,7.0,9.0,85,0.00,,,0.00,327,Wunderground v.1.15,2013-06-01 13:55:00,
2013-06-01 09:00:00,79.7,74.8,29.74,SSE,150,7.0,7.0,85,0.00,,,0.00,327,Wunderground v.1.15,2013-06-01 14:00:00,
2013-06-01 09:05:00,80.1,74.8,29.74,SSE,163,6.0,7.0,84,0.00,,,0.00,555,Wunderground v.1.15,2013-06-01 14:05:00,
2013-06-01 09:10:00,80.2,74.9,29.74,South,169,7.0,7.0,84,0.00,,,0.00,251,Wunderground v.1.15,2013-06-01 14:10:00,
2013-06-01 09:15:00,80.2,74.9,29.74,SSE,163,8.0,9.0,84,0.00,,,0.00,251,Wunderground v.1.15,2013-06-01 14:15:00,
2013-06-01 09:20:00,80.7,75.1,29.74,SSE,163,7.0,12.0,83,0.00,,,0.00,636,Wunderground v.1.15,2013-06-01 14:20:00,
2013-06-01 09:25:00,81.1,75.1,29.74,South,173,7.0,12.0,82,0.00,,,0.00,712,Wunderground v.1.15,2013-06-01 14:25:00,
2013-06-01 09:30:00,81.1,75.1,29.74,South,191,8.0,15.0,82,0.00,,,0.00,148,Wunderground v.1.15,2013-06-01 14:30:00,
2013-06-01 09:35:00,80.7,74.7,29.74,SSW,192,6.0,15.0,82,0.00,,,0.00,169,Wunderground v.1.15,2013-06-01 14:35:00,
2013-06-01 09:40:00,80.6,75.0,29.74,South,178,7.0,7.0,83,0.00,,,0.00,253,Wunderground v.1.15,2013-06-01 14:40:00,
2013-06-01 09:45:00,80.8,74.4,29.74,SSE,153,7.0,11.0,81,0.00,,,0.00,612,Wunderground v.1.15,2013-06-01 14:45:00,
2013-06-01 09:50:00,81.3,74.9,29.74,South,175,6.0,6.0,81,0.00,,,0.00,281,Wunderground v.1.15,2013-06-01 14:50:00,
2013-06-01 10:00:00,81.8,75.0,29.74,SSE,163,5.0,5.0,80,0.00,,,0.00,353,Wunderground v.1.15,2013-06-01 15:00:00,
2013-06-01 10:05:00,82.4,74.8,29.74,SSE,166,6.0,14.0,78,0.00,,,0.00,652,Wunderground v.1.15,2013-06-01 15:05:00,
2013-06-01 10:10:00,81.9,74.7,29.74,SSE,163,6.0,6.0,79,0.00,,,0.00,250,Wunderground v.1.15,2013-06-01 15:10:00,
2013-06-01 10:15:00,81.7,74.5,29.75,South,175,7.0,11.0,79,0.00,,,0.00,214,Wunderground v.1.15,2013-06-01 15:15:00,
2013-06-01 10:20:00,81.7,75.3,29.75,South,190,9.0,10.0,81,0.00,,,0.00,860,Wunderground v.1.15,2013-06-01 15:20:00,
2013-06-01 10:25:00,82.5,75.3,29.75,South,178,9.0,10.0,79,0.00,,,0.00,322,Wunderground v.1.15,2013-06-01 15:25:00,
2013-06-01 10:30:00,82.8,74.8,29.74,South,186,10.0,11.0,77,0.00,,,0.00,355,Wunderground v.1.15,2013-06-01 15:30:00,
2013-06-01 10:35:00,83.6,75.6,29.74,South,184,11.0,11.0,77,0.00,,,0.00,856,Wunderground v.1.15,2013-06-01 15:35:00,
2013-06-01 10:45:00,85.1,76.3,29.74,South,175,9.0,18.0,75,0.00,,,0.00,849,Wunderground v.1.15,2013-06-01 15:45:00,
2013-06-01 10:50:00,85.0,76.6,29.74,South,181,9.0,9.0,76,0.00,,,0.00,877,Wunderground v.1.15,2013-06-01 15:50:00,
2013-06-01 10:55:00,84.6,75.4,29.74,SSE,167,9.0,10.0,74,0.00,,,0.00,214,Wunderground v.1.15,2013-06-01 15:55:00,
2013-06-01 11:00:00,84.2,75.8,29.74,South,183,9.0,9.0,76,0.00,,,0.00,214,Wunderground v.1.15,2013-06-01 16:00:00,
2013-06-01 11:05:00,84.4,75.6,29.74,South,190,9.0,11.0,75,0.00,,,0.00,838,Wunderground v.1.15,2013-06-01 16:05:00,
2013-06-01 11:10:00,85.2,76.0,29.74,SSE,147,9.0,9.0,74,0.00,,,0.00,884,Wunderground v.1.15,2013-06-01 16:10:00,
2013-06-01 11:15:00,85.2,76.0,29.74,South,175,8.0,9.0,74,0.00,,,0.00,914,Wunderground v.1.15,2013-06-01 16:15:00,
2013-06-01 11:20:00,85.9,75.8,29.74,SE,144,8.0,15.0,72,0.00,,,0.00,981,Wunderground v.1.15,2013-06-01 16:20:00,
2013-06-01 11:25:00,85.7,76.0,29.74,SSE,161,9.0,15.0,73,0.00,,,0.00,921,Wunderground v.1.15,2013-06-01 16:25:00,
2013-06-01 11:35:00,86.3,76.2,29.73,SSE,165,10.0,10.0,72,0.00,,,0.00,895,Wunderground v.1.15,2013-06-01 16:35:00,
2013-06-01 11:40:00,86.2,76.1,29.73,South,169,10.0,12.0,72,0.00,,,0.00,925,Wunderground v.1.15,2013-06-01 16:40:00,
2013-06-01 11:45:00,87.0,77.3,29.73,SSE,160,9.0,12.0,73,0.00,,,0.00,958,Wunderground v.1.15,2013-06-01 16:45:00,
2013-06-01 11:50:00,87.1,77.0,29.73,South,185,9.0,11.0,72,0.00,,,0.00,976,Wunderground v.1.15,2013-06-01 16:50:00,
2013-06-01 11:55:00,87.5,77.8,29.73,South,180,10.0,20.0,73,0.00,,,0.00,898,Wunderground v.1.15,2013-06-01 16:55:00,
2013-06-01 12:05:00,87.1,77.0,29.73,SSE,167,8.0,11.0,72,0.00,,,0.00,1063,Wunderground v.1.15,2013-06-01 17:05:00,
2013-06-01 12:10:00,87.3,76.3,29.73,SE,140,8.0,8.0,70,0.00,,,0.00,860,Wunderground v.1.15,2013-06-01 17:10:00,
2013-06-01 12:20:00,87.7,77.1,29.73,South,172,7.0,10.0,71,0.00,,,0.00,967,Wunderground v.1.15,2013-06-01 17:20:00,
2013-06-01 12:25:00,87.7,77.1,29.73,SSE,162,7.0,10.0,71,0.00,,,0.00,947,Wunderground v.1.15,2013-06-01 17:25:00,
2013-06-01 12:35:00,88.9,77.0,29.73,SSW,203,9.0,9.0,68,0.00,,,0.00,1013,Wunderground v.1.15,2013-06-01 17:35:00,
2013-06-01 12:40:00,89.2,77.3,29.73,SSE,164,8.0,8.0,68,0.00,,,0.00,1000,Wunderground v.1.15,2013-06-01 17:40:00,
2013-06-01 12:45:00,88.8,76.9,29.72,South,190,8.0,11.0,68,0.00,,,0.00,967,Wunderground v.1.15,2013-06-01 17:45:00,
2013-06-01 12:50:00,89.1,77.6,29.72,SSE,159,8.0,8.0,69,0.00,,,0.00,969,Wunderground v.1.15,2013-06-01 17:50:00,
2013-06-01 12:55:00,89.1,77.2,29.72,SE,137,8.0,10.0,68,0.00,,,0.00,1011,Wunderground v.1.15,2013-06-01 17:55:00,
2013-06-01 13:00:00,88.8,76.4,29.72,SSE,165,7.0,7.0,67,0.00,,,0.00,1055,Wunderground v.1.15,2013-06-01 18:00:00,
2013-06-01 13:05:00,88.9,77.4,29.72,SSW,210,7.0,7.0,69,0.00,,,0.00,988,Wunderground v.1.15,2013-06-01 18:05:00,
2013-06-01 13:15:00,89.6,77.2,29.72,SSW,197,6.0,7.0,67,0.00,,,0.00,1030,Wunderground v.1.15,2013-06-01 18:15:00,
2013-06-01 13:20:00,89.9,77.5,29.72,SSE,156,6.0,6.0,67,0.00,,,0.00,1000,Wunderground v.1.15,2013-06-01 18:20:00,
2013-06-01 13:25:00,90.5,78.0,29.72,South,179,7.0,7.0,67,0.00,,,0.00,1069,Wunderground v.1.15,2013-06-01 18:25:00,
2013-06-01 13:30:00,90.5,76.7,29.72,SE,128,6.0,6.0,64,0.00,,,0.00,1014,Wunderground v.1.15,2013-06-01 18:30:00,
2013-06-01 13:40:00,89.7,76.4,29.72,SSE,155,5.0,5.0,65,0.00,,,0.00,983,Wunderground v.1.15,2013-06-01 18:40:00,
2013-06-01 13:45:00,90.0,77.1,29.71,South,190,6.0,9.0,66,0.00,,,0.00,1069,Wunderground v.1.15,2013-06-01 18:45:00,
2013-06-01 13:50:00,90.3,76.5,29.71,SE,144,6.0,6.0,64,0.00,,,0.00,956,Wunderground v.1.15,2013-06-01 18:50:00,
2013-06-01 14:00:00,90.5,76.2,29.71,SSE,161,5.0,5.0,63,0.00,,,0.00,965,Wunderground v.1.15,2013-06-01 19:00:00,
2013-06-01 14:05:00,90.5,76.7,29.71,SE,126,5.0,5.0,64,0.00,,,0.00,976,Wunderground v.1.15,2013-06-01 19:05:00,
2013-06-01 14:10:00,91.4,77.5,29.71,SSW,207,5.0,5.0,64,0.00,,,0.00,974,Wunderground v.1.15,2013-06-01 19:10:00,
2013-06-01 14:15:00,92.4,78.0,29.70,SSW,202,6.0,10.0,63,0.00,,,0.00,1013,Wunderground v.1.15,2013-06-01 19:15:00,
2013-06-01 14:20:00,92.8,77.4,29.70,South,183,8.0,9.0,61,0.00,,,0.00,965,Wunderground v.1.15,2013-06-01 19:20:00,
2013-06-01 14:25:00,92.6,77.2,29.70,South,171,7.0,9.0,61,0.00,,,0.00,937,Wunderground v.1.15,2013-06-01 19:25:00,
2013-06-01 14:30:00,91.9,76.5,29.70,SSE,158,5.0,5.0,61,0.00,,,0.00,942,Wunderground v.1.15,2013-06-01 19:30:00,
2013-06-01 14:35:00,92.0,76.6,29.70,SE,140,3.0,5.0,61,0.00,,,0.00,970,Wunderground v.1.15,2013-06-01 19:35:00,
2013-06-01 14:40:00,91.8,77.4,29.70,SSE,161,2.0,2.0,63,0.00,,,0.00,998,Wunderground v.1.15,2013-06-01 19:40:00,
2013-06-01 14:45:00,91.1,76.7,29.71,South,180,2.0,2.0,63,0.00,,,0.00,288,Wunderground v.1.15,2013-06-01 19:45:00,
2013-06-01 14:55:00,91.5,78.1,29.71,SSE,161,0.0,1.0,65,0.00,,,0.00,1139,Wunderground v.1.15,2013-06-01 19:55:00,
2013-06-01 15:00:00,91.9,77.0,29.70,ESE,120,1.0,5.0,62,0.00,,,0.00,1083,Wunderground v.1.15,2013-06-01 20:00:00,
2013-06-01 15:05:00,91.8,76.9,29.70,SSE,147,2.0,5.0,62,0.00,,,0.00,1023,Wunderground v.1.15,2013-06-01 20:05:00,
2013-06-01 15:10:00,92.0,78.5,29.70,SE,127,1.0,4.0,65,0.00,,,0.00,963,Wunderground v.1.15,2013-06-01 20:10:00,
2013-06-01 15:15:00,92.0,76.6,29.69,SE,126,2.0,4.0,61,0.00,,,0.00,951,Wunderground v.1.15,2013-06-01 20:15:00,
2013-06-01 15:20:00,91.1,76.3,29.69,SSE,159,3.0,3.0,62,0.00,,,0.00,279,Wunderground v.1.15,2013-06-01 20:20:00,
2013-06-01 15:25:00,91.3,77.9,29.69,SE,140,2.0,3.0,65,0.00,,,0.00,867,Wunderground v.1.15,2013-06-01 20:25:00,
2013-06-01 15:35:00,92.0,76.1,29.69,SSE,155,3.0,5.0,60,0.00,,,0.00,846,Wunderground v.1.15,2013-06-01 20:35:00,
2013-06-01 15:45:00,92.5,76.6,29.69,SSE,164,2.0,2.0,60,0.00,,,0.00,838,Wunderground v.1.15,2013-06-01 20:45:00,
2013-06-01 15:50:00,92.8,79.3,29.69,SSE,164,1.0,1.0,65,0.00,,,0.00,888,Wunderground v.1.15,2013-06-01 20:50:00,
2013-06-01 15:55:00,92.2,76.3,29.69,SSE,154,2.0,3.0,60,0.00,,,0.00,390,Wunderground v.1.15,2013-06-01 20:55:00,
2013-06-01 16:05:00,92.8,75.8,29.69,SSE,164,2.0,3.0,58,0.00,,,0.00,798,Wunderground v.1.15,2013-06-01 21:05:00,
2013-06-01 16:10:00,93.4,77.4,29.69,SSW,201,1.0,7.0,60,0.00,,,0.00,823,Wunderground v.1.15,2013-06-01 21:10:00,
2013-06-01 16:15:00,93.5,77.0,29.69,SSE,147,2.0,7.0,59,0.00,,,0.00,816,Wunderground v.1.15,2013-06-01 21:15:00,
2013-06-01 16:20:00,93.2,78.7,29.69,East,98,1.0,1.0,63,0.00,,,0.00,800,Wunderground v.1.15,2013-06-01 21:20:00,
2013-06-01 16:25:00,92.4,77.5,29.69,East,101,0.0,1.0,62,0.00,,,0.00,758,Wunderground v.1.15,2013-06-01 21:25:00,
2013-06-01 16:30:00,92.7,77.3,29.69,ESE,107,0.0,0.0,61,0.00,,,0.00,179,Wunderground v.1.15,2013-06-01 21:30:00,
2013-06-01 16:35:00,91.6,77.2,29.69,ESE,107,0.0,4.0,63,0.00,,,0.00,728,Wunderground v.1.15,2013-06-01 21:35:00,
2013-06-01 16:40:00,92.2,76.3,29.69,East,94,1.0,1.0,60,0.00,,,0.00,679,Wunderground v.1.15,2013-06-01 21:40:00,
2013-06-01 16:45:00,92.7,75.8,29.68,ESE,102,2.0,2.0,58,0.00,,,0.00,679,Wunderground v.1.15,2013-06-01 21:45:00,
2013-06-01 16:50:00,92.2,75.8,29.68,ESE,102,1.0,1.0,59,0.00,,,0.00,643,Wunderground v.1.15,2013-06-01 21:50:00,
2013-06-01 16:55:00,92.7,77.3,29.68,ESE,102,0.0,3.0,61,0.00,,,0.00,621,Wunderground v.1.15,2013-06-01 21:55:00,
2013-06-01 17:00:00,92.7,76.8,29.67,ESE,117,2.0,3.0,60,0.00,,,0.00,613,Wunderground v.1.15,2013-06-01 22:00:00,
2013-06-01 17:05:00,93.1,76.6,29.67,ESE,118,1.0,3.0,59,0.00,,,0.00,598,Wunderground v.1.15,2013-06-01 22:05:00,
2013-06-01 17:10:00,93.3,75.3,29.67,ESE,121,1.0,1.0,56,0.00,,,0.00,591,Wunderground v.1.15,2013-06-01 22:10:00,
2013-06-01 17:15:00,93.5,76.0,29.67,SE,139,2.0,2.0,57,0.00,,,0.00,589,Wunderground v.1.15,2013-06-01 22:15:00,
2013-06-01 17:20:00,93.5,76.0,29.67,SE,138,2.0,2.0,57,0.00,,,0.00,599,Wunderground v.1.15,2013-06-01 22:20:00,
2013-06-01 17:25:00,93.2,75.7,29.67,SE,126,2.0,2.0,57,0.00,,,0.00,570,Wunderground v.1.15,2013-06-01 22:25:00,
2013-06-01 17:30:00,93.1,77.7,29.67,SE,125,3.0,3.0,61,0.00,,,0.00,575,Wunderground v.1.15,2013-06-01 22:30:00,
2013-06-01 17:40:00,92.5,76.1,29.67,ESE,119,2.0,2.0,59,0.00,,,0.00,529,Wunderground v.1.15,2013-06-01 22:40:00,
2013-06-01 17:50:00,92.9,76.5,29.67,ESE,119,2.0,6.0,59,0.00,,,0.00,452,Wunderground v.1.15,2013-06-01 22:50:00,
2013-06-01 17:55:00,92.8,75.8,29.67,ESE,120,1.0,6.0,58,0.00,,,0.00,476,Wunderground v.1.15,2013-06-01 22:55:00,
2013-06-01 18:00:00,92.6,74.6,29.67,ESE,121,1.0,4.0,56,0.00,,,0.00,450,Wunderground v.1.15,2013-06-01 23:00:00,
2013-06-01 18:10:00,92.9,75.4,29.67,SE,126,3.0,3.0,57,0.00,,,0.00,397,Wunderground v.1.15,2013-06-01 23:10:00,
2013-06-01 18:15:00,92.9,75.4,29.67,ESE,123,2.0,5.0,57,0.00,,,0.00,385,Wunderground v.1.15,2013-06-01 23:15:00,
2013-06-01 18:20:00,93.0,75.0,29.67,SE,125,2.0,7.0,56,0.00,,,0.00,373,Wunderground v.1.15,2013-06-01 23:20:00,
2013-06-01 18:25:00,93.0,75.5,29.67,SE,126,3.0,7.0,57,0.00,,,0.00,95,Wunderground v.1.15,2013-06-01 23:25:00,
2013-06-01 18:30:00,92.7,75.8,29.67,SE,126,3.0,3.0,58,0.00,,,0.00,329,Wunderground v.1.15,2013-06-01 23:30:00,
2013-06-01 18:35:00,92.4,76.0,29.67,SE,126,2.0,3.0,59,0.00,,,0.00,362,Wunderground v.1.15,2013-06-01 23:35:00,
2013-06-01 18:40:00,92.6,77.2,29.67,ESE,122,1.0,1.0,61,0.00,,,0.00,367,Wunderground v.1.15,2013-06-01 23:40:00,
2013-06-01 18:45:00,92.6,76.7,29.67,ESE,111,2.0,2.0,60,0.00,,,0.00,315,Wunderground v.1.15,2013-06-01 23:45:00,
2013-06-01 18:50:00,92.3,76.9,29.67,ESE,105,3.0,10.0,61,0.00,,,0.00,216,Wunderground v.1.15,2013-06-01 23:50:00,
2013-06-01 18:55:00,92.1,75.7,29.67,East,89,4.0,10.0,59,0.00,,,0.00,227,Wunderground v.1.15,2013-06-01 23:55:00,
2013-06-01 19:00:00,92.1,76.7,29.67,East,92,3.0,4.0,61,0.00,,,0.00,197,Wunderground v.1.15,2013-06-02 00:00:00,
2013-06-01 19:05:00,92.1,76.7,29.67,East,91,3.0,4.0,61,0.00,,,0.00,223,Wunderground v.1.15,2013-06-02 00:05:00,
2013-06-01 19:10:00,92.0,76.6,29.67,East,94,2.0,2.0,61,0.00,,,0.00,200,Wunderground v.1.15,2013-06-02 00:10:00,
2013-06-01 19:15:00,92.0,76.6,29.67,East,97,1.0,2.0,61,0.00,,,0.00,169,Wunderground v.1.15,2013-06-02 00:15:00,
2013-06-01 19:20:00,91.9,76.5,29.67,East,95,2.0,2.0,61,0.00,,,0.00,128,Wunderground v.1.15,2013-06-02 00:20:00,
2013-06-01 19:25:00,91.8,76.4,29.67,East,94,2.0,2.0,61,0.00,,,0.00,125,Wunderground v.1.15,2013-06-02 00:25:00,
2013-06-01 19:30:00,91.5,76.1,29.68,ESE,116,2.0,6.0,61,0.00,,,0.00,39,Wunderground v.1.15,2013-06-02 00:30:00,
2013-06-01 19:35:00,91.0,76.2,29.68,ESE,113,3.0,6.0,62,0.00,,,0.00,39,Wunderground v.1.15,2013-06-02 00:35:00,
2013-06-01 19:40:00,90.7,75.9,29.68,ESE,122,4.0,6.0,62,0.00,,,0.00,37,Wunderground v.1.15,2013-06-02 00:40:00,
2013-06-01 19:45:00,90.4,76.1,29.68,ESE,122,4.0,6.0,63,0.00,,,0.00,35,Wunderground v.1.15,2013-06-02 00:45:00,
2013-06-01 19:55:00,89.9,76.1,29.68,ESE,117,4.0,5.0,64,0.00,,,0.00,37,Wunderground v.1.15,2013-06-02 00:55:00,
2013-06-01 20:00:00,89.7,76.4,29.69,ESE,115,3.0,3.0,65,0.00,,,0.00,35,Wunderground v.1.15,2013-06-02 01:00:00,
2013-06-01 20:05:00,89.5,76.2,29.69,ESE,115,3.0,4.0,65,0.00,,,0.00,28,Wunderground v.1.15,2013-06-02 01:05:00,
2013-06-01 20:10:00,89.4,76.1,29.69,ESE,117,2.0,2.0,65,0.00,,,0.00,12,Wunderground v.1.15,2013-06-02 01:10:00,
2013-06-01 20:15:00,89.2,75.9,29.70,ESE,122,3.0,6.0,65,0.00,,,0.00,5,Wunderground v.1.15,2013-06-02 01:15:00,
2013-06-01 20:25:00,88.6,76.2,29.70,ESE,117,6.0,12.0,67,0.00,,,0.00,0,Wunderground v.1.15,2013-06-02 01:25:00,
2013-06-01 20:30:00,88.2,76.3,29.71,SE,125,5.0,9.0,68,0.00,,,0.00,0,Wunderground v.1.15,2013-06-02 01:30:00,
2013-06-01 20:40:00,87.5,76.1,29.71,ESE,123,5.0,5.0,69,0.00,,,0.00,0,Wunderground v.1.15,2013-06-02 01:40:00,
2013-06-01 20:45:00,87.2,75.8,29.71,East,98,5.0,5.0,69,0.00,,,0.00,0,Wunderground v.1.15,2013-06-02 01:45:00,
2013-06-01 20:50:00,87.0,76.0,29.71,SE,125,6.0,6.0,70,0.00,,,0.00,0,Wunderground v.1.15,2013-06-02 01:50:00,
2013-06-01 20:55:00,86.7,75.7,29.71,East,84,7.0,7.0,70,0.00,,,0.00,0,Wunderground v.1.15,2013-06-02 01:55:00,
2013-06-01 21:00:00,86.4,75.9,29.71,SE,140,7.0,12.0,71,0.00,,,0.00,0,Wunderground v.1.15,2013-06-02 02:00:00,
2013-06-01 21:05:00,86.2,75.7,29.71,SE,139,5.0,12.0,71,0.00,,,0.00,0,Wunderground v.1.15,2013-06-02 02:05:00,
2013-06-01 21:10:00,86.0,75.5,29.71,SE,125,4.0,4.0,71,0.00,,,0.00,0,Wunderground v.1.15,2013-06-02 02:10:00,
2013-06-01 21:20:00,85.5,75.4,29.72,ESE,119,6.0,6.0,72,0.00,,,0.00,0,Wunderground v.1.15,2013-06-02 02:20:00,
2013-06-01 21:25:00,85.3,75.7,29.72,ESE,119,4.0,6.0,73,0.00,,,0.00,0,Wunderground v.1.15,2013-06-02 02:25:00,
2013-06-01 21:30:00,85.2,75.6,29.74,SSE,158,2.0,5.0,73,0.00,,,0.00,0,Wunderground v.1.15,2013-06-02 02:30:00,
2013-06-01 21:35:00,84.9,75.7,29.74,SSE,148,3.0,13.0,74,0.00,,,0.00,0,Wunderground v.1.15,2013-06-02 02:35:00,
2013-06-01 21:40:00,84.7,75.5,29.74,SSE,157,6.0,6.0,74,0.00,,,0.00,0,Wunderground v.1.15,2013-06-02 02:40:00,
2013-06-01 21:45:00,84.4,75.6,29.75,SSE,162,7.0,7.0,75,0.00,,,0.00,0,Wunderground v.1.15,2013-06-02 02:45:00,
2013-06-01 21:50:00,84.1,75.3,29.75,SSE,149,7.0,7.0,75,0.00,,,0.00,0,Wunderground v.1.15,2013-06-02 02:50:00,
2013-06-01 21:55:00,83.8,75.4,29.75,SSE,148,7.0,7.0,76,0.00,,,0.00,0,Wunderground v.1.15,2013-06-02 02:55:00,
2013-06-01 22:00:00,83.6,75.2,29.76,SSE,149,6.0,6.0,76,0.00,,,0.00,0,Wunderground v.1.15,2013-06-02 03:00:00,
2013-06-01 22:05:00,83.4,75.0,29.76,ESE,122,5.0,6.0,76,0.00,,,0.00,0,Wunderground v.1.15,2013-06-02 03:05:00,
2013-06-01 22:10:00,83.2,75.2,29.76,ESE,114,3.0,6.0,77,0.00,,,0.00,0,Wunderground v.1.15,2013-06-02 03:10:00,
2013-06-01 22:15:00,82.9,74.9,29.76,SE,142,5.0,9.0,77,0.00,,,0.00,0,Wunderground v.1.15,2013-06-02 03:15:00,
2013-06-01 22:20:00,82.7,75.1,29.76,ESE,111,7.0,7.0,78,0.00,,,0.00,0,Wunderground v.1.15,2013-06-02 03:20:00,
2013-06-01 22:25:00,82.5,74.9,29.76,SE,125,6.0,10.0,78,0.00,,,0.00,0,Wunderground v.1.15,2013-06-02 03:25:00,
2013-06-01 22:30:00,82.3,75.1,29.76,ESE,123,5.0,5.0,79,0.00,,,0.00,0,Wunderground v.1.15,2013-06-02 03:30:00,
2013-06-01 22:35:00,82.1,74.9,29.76,SE,130,3.0,5.0,79,0.00,,,0.00,0,Wunderground v.1.15,2013-06-02 03:35:00,
2013-06-01 22:40:00,81.9,74.7,29.76,SE,146,4.0,5.0,79,0.00,,,0.00,0,Wunderground v.1.15,2013-06-02 03:40:00,
2013-06-01 22:45:00,81.7,74.9,29.77,SE,125,5.0,7.0,80,0.00,,,0.00,0,Wunderground v.1.15,2013-06-02 03:45:00,
2013-06-01 22:50:00,81.6,74.8,29.77,SE,136,5.0,9.0,80,0.00,,,0.00,0,Wunderground v.1.15,2013-06-02 03:50:00,
2013-06-01 22:55:00,81.4,75.0,29.77,SE,138,5.0,9.0,81,0.00,,,0.00,0,Wunderground v.1.15,2013-06-02 03:55:00,
2013-06-01 23:00:00,81.3,74.9,29.78,SE,144,5.0,5.0,81,0.00,,,0.00,0,Wunderground v.1.15,2013-06-02 04:00:00,
2013-06-01 23:05:00,81.1,74.7,29.78,ESE,122,3.0,5.0,81,0.00,,,0.00,0,Wunderground v.1.15,2013-06-02 04:05:00,
2013-06-01 23:10:00,81.0,75.0,29.78,SE,130,2.0,4.0,82,0.00,,,0.00,0,Wunderground v.1.15,2013-06-02 04:10:00,
2013-06-01 23:15:00,80.9,74.9,29.78,SE,133,2.0,4.0,82,0.00,,,0.00,0,Wunderground v.1.15,2013-06-02 04:15:00,
2013-06-01 23:20:00,80.7,74.7,29.78,SE,133,2.0,7.0,82,0.00,,,0.00,0,Wunderground v.1.15,2013-06-02 04:20:00,
2013-06-01 23:25:00,80.5,74.9,29.78,SE,134,3.0,7.0,83,0.00,,,0.00,0,Wunderground v.1.15,2013-06-02 04:25:00,
2013-06-01 23:35:00,80.2,74.6,29.79,SSE,149,4.0,4.0,83,0.00,,,0.00,0,Wunderground v.1.15,2013-06-02 04:35:00,
2013-06-01 23:40:00,80.1,74.8,29.79,SSE,147,4.0,6.0,84,0.00,,,0.00,0,Wunderground v.1.15,2013-06-02 04:40:00,
2013-06-01 23:50:00,79.8,74.5,29.79,SE,141,1.0,1.0,84,0.00,,,0.00,0,Wunderground v.1.15,2013-06-02 04:50:00,
2013-06-01 23:55:00,79.7,74.8,29.79,SE,141,0.0,1.0,85,0.00,,,0.00,0,Wunderground v.1.15,2013-06-02 04:55:00,